FLOCK 3R-16 (43735 NORAD) Tracking and Keplerian Element Data

This shows tracking and keplerian element data for the satellite.

Feedback or suggestion? Click here.




ElementValue
Catalog43735
NameFLOCK 3R-16
Epoch Orbit458
Epoch Day363.17647915
Epoch Year2018
RAAN68.2356
Inclination97.4815
Eccentricity0.002121
Argument of Perigee220.2022
Mean Anonmoly139.7649
Mean Motion15.26946896
Decay Rate8.38E-06
L11 43735U 18096S 18363.17647915 .00000838 00000-0 34350-4 0 9995
L22 43735 97.4815 68.2356 0021210 220.2022 139.7649 15.26946896 4586

Live tracking and technical data element details for FLOCK 3R-16 (NORAD 43735). FLOCK 3R-16 can be tracked NOW for your location showing map with azimuth and elevation plus other details from your city location.

Track the satellite on the map from your city or location and see movement details for azimuth, elevation, latitude, longitude, range, height, and movement on the map or in text.







IsCatalogInMostPopularTable: catalog: 43735, numindb: 145
Update: records affected: 1



GetName: 43735 FLOCK 3R-16

Hit Count: updated at: Mon, 15 Jul 2019 21:54:55 GMT